Location: Pardubice
(50.0330°N, 15.7830°E)
Time: 00:23:52
(UTC+02:00)

ACS3 Solar Sail - Visible Passes

Search period start: 20 September 2024 00:00
Search period end: 30 September 2024 00:00
Orbit: 970 x 1035 km, 97.4° (Epoch: 18 September)

Date Brightness Start Highest point End Pass type
(mag) Time Alt. Az. Time Alt. Az. Time Alt. Az.
20 Sep 1.8 20:48:37 16° SSE 20:53:59 79° ENE 21:00:24 10° N visible
20 Sep 3.9 22:33:53 10° SW 22:38:41 22° W 22:43:30 10° NW visible
21 Sep 2.8 19:37:55 10° ESE 19:43:18 29° ENE 19:48:40 10° N visible
21 Sep 2.2 21:21:58 18° S 21:26:54 64° W 21:33:16 10° NNW visible
21 Sep 4.4 23:09:45 10° WSW 23:12:10 12° W 23:14:35 10° WNW visible
22 Sep 2.2 20:10:03 11° SE 20:15:49 47° ENE 20:21:53 10° N visible
22 Sep 3.1 21:55:17 16° SSW 21:59:56 38° W 22:05:52 10° NNW visible
23 Sep 1.8 20:43:20 17° SSE 20:48:27 76° ENE 20:54:51 10° N visible
23 Sep 3.8 22:28:34 11° SW 22:33:07 23° W 22:38:02 10° NW visible
24 Sep 2.8 19:32:25 10° ESE 19:37:42 28° ENE 19:42:58 10° N visible
24 Sep 2.2 21:16:33 19° S 21:21:14 67° W 21:27:36 10° NNW visible
24 Sep 4.4 23:03:42 10° WSW 23:06:26 13° W 23:09:11 10° NW visible
25 Sep 2.3 20:04:31 12° SE 20:10:04 45° ENE 20:16:03 10° N visible
25 Sep 3.0 21:49:45 18° SSW 21:54:07 40° W 22:00:06 10° NNW visible
26 Sep 1.8 20:37:40 18° SSE 20:42:34 72° ENE 20:48:55 10° N visible
26 Sep 3.8 22:22:53 13° SW 22:27:09 24° W 22:32:11 10° NW visible
27 Sep 2.9 19:26:32 10° ESE 19:31:43 27° ENE 19:36:51 10° N visible
27 Sep 2.1 21:10:46 21° S 21:15:11 71° W 21:21:34 10° NNW visible
27 Sep 4.3 22:57:16 10° WSW 23:00:19 14° W 23:03:23 10° NW visible
28 Sep 2.3 19:58:36 13° SE 20:03:56 42° ENE 20:09:51 10° N visible
28 Sep 2.9 21:43:49 20° SSW 21:47:55 42° W 21:53:56 10° NNW visible
29 Sep 1.8 20:31:37 19° SSE 20:36:17 69° ENE 20:42:35 10° N visible
29 Sep 3.7 22:16:50 15° SW 22:20:48 25° W 22:25:57 10° NW visible
